{"data":{"norad_id":48915,"epoch":"2026-09-19T23:56:44.203776Z","epoch_age_seconds":118752,"freshness":"FRESH","line1":"1 48915U 21059AN  26262.99773384  .00008564  00000+0  15235-3 0  9993","line2":"2 48915  97.6973  96.3010 0005593  32.9919 327.1680 15.50414268291672","mean_motion":15.50414268,"eccentricity":0.0005593,"inclination_deg":97.6973,"raan_deg":96.301,"arg_perigee_deg":32.9919,"mean_anomaly_deg":327.168,"bstar":0.00015235,"rev_number":29167,"period_min":92.878402225849,"perigee_km":411.71594165013,"apogee_km":419.3153214838,"semimajor_km":6793.652631567,"source":"CELESTRAK","updated_at":"2026-09-20T09:00:15.223262Z"}}